sat.trackr.live / text

‹ back to catalog

STARLINK-34097

NORAD 63903 · 2025-095P

PAYLOAD ACTIVE UNKNOWN

§ Identity

Operator
Country
US
Launch date
2025-05-10
Launch site
AFETR
Launch vehicle
Mass (kg)
RCS (m²)

Purposes: comms

External: N2YO · Heavens-Above · Gunter

§ Orbital elements

Epoch: 2026-09-20T23:05:43.533888Z

Period
94.27 min
Inclination
43.0011°
Eccentricity
0.0001516
Mean motion
15.27584361 rev/d
Perigee alt
482.0 km
Apogee alt
484.1 km
Semi-major
6,861.2 km
B*
5.2517e-4
RAAN
153.2959°
Arg perigee
267.0997°
Mean anomaly
92.9681°
Rev number
7,764

§ Raw data

STARLINK-340971 63903U 25095P   26263.96230942  .00014219  00000+0  52517-3 0  99952 63903  43.0011 153.2959 0001516 267.0997  92.9681 15.27584361 77640

JSON: /api/v1/satellites/63903 · /tle

For live sub-satellite position, see the globe view (requires WebGL).

§ Visibility from observer

Set your observer location to see the next 7 days of passes ≥ 10°. The values pass through the URL so the page stays shareable.

No JS? Fill the form by hand. The geolocation button needs JavaScript.